Location: Wien
(48.2082°N, 16.3738°E)
Time: 09:03:11
(UTC+02:00)

Transit 4A - Pass Details

Date: 28 February 2024
Orbit: 871 x 971 km, 66.8° (Epoch: 24 April)

Event Time Altitude Azimuth Distance (km) Brightness Sun altitude
Exits shadow 02:00:32 18° 20° (NNE) 2,056 10.1 -43.4°
Drops below altitude 10° 02:02:07 10° 27° (NNE) 2,584 10.8 -43.2°
Sets 02:04:43 0° 34° (NE) 3,513 11.7 -42.9°
